Location: Observatory Point
(48.1504°N, 123.6376°W)
Time: 03:27:30
(UTC-07:00)

OTV 5 (USA 277) - Visible Passes

Search period start: 25 April 2018 00:00
Search period end: 05 May 2018 00:00
Orbit: 308 x 325 km, 54.5° (Epoch: 23 April)

Date Brightness Start Highest point End Pass type
(mag) Time Alt. Az. Time Alt. Az. Time Alt. Az.
25 Apr ? 21:56:40 10° NW 21:58:49 20° N 22:00:58 10° NE visible
25 Apr ? 23:31:01 10° NW 23:31:52 17° NW 23:31:52 17° NW visible
26 Apr ? 22:11:15 10° NW 22:13:32 23° N 22:14:52 16° NE visible
26 Apr ? 23:45:27 10° WNW 23:45:44 12° WNW 23:45:44 12° WNW visible
27 Apr ? 22:25:43 10° NW 22:28:13 32° NNE 22:28:41 29° NE visible
28 Apr ? 21:05:53 10° NW 21:08:05 21° N 21:10:17 10° ENE visible
28 Apr ? 22:40:07 10° NW 22:42:31 51° N 22:42:31 51° N visible
29 Apr ? 21:20:23 10° NW 21:22:47 26° NNE 21:25:10 10° ENE visible
29 Apr ? 22:54:36 10° WNW 22:56:22 35° WNW 22:56:22 35° WNW visible
30 Apr ? 21:34:48 10° NW 21:37:25 40° NNE 21:39:21 15° E visible
30 Apr ? 23:09:17 10° WNW 23:10:13 17° W 23:10:13 17° W visible
01 May ? 21:49:14 10° WNW 21:51:58 81° NNE 21:53:14 28° ESE visible
02 May ? 22:03:47 10° WNW 22:06:24 42° SW 22:07:09 32° S visible
03 May ? 22:18:42 10° W 22:20:41 18° SW 22:21:07 18° SSW visible
